Orbital Elements at Epoch 2459200.5 (2020-Dec-17.0) TDB
Reference: JPL 38 (heliocentric ecliptic J2000)
Element | Value | Uncertainty (1-sigma) | Units |
e | .1217940594338191 | 1.904e-08 | |
a | 2.685696741782227 | 1.0053e-08 | au |
q | 2.358594833192388 | 5.2669e-08 | au |
i | 12.19019580553691 | 1.188e-06 | deg |
node | 198.0837652479713 | 3.4993e-06 | deg |
peri | 274.4236965174954 | 7.2317e-06 | deg |
M | 356.8459119426575 | 6.7931e-06 | deg |
tp | 2459214.584946397357 (2020-Dec-31.08494640) | 3.0349e-05 | TDB |
period | 1607.62179459277 4.40 | 9.0262e-06 2.471e-08 | d yr |
n | .2239332666494437 | 1.2573e-09 | deg/d |
Q | 3.012798650372067 | 1.1277e-08 | au |
|
| | Orbit Determination Parameters
Additional Information
|